EDW4V LSZH-KLAS

Flight info

Callsign EDW4V
Flight time N/A
Altitude 32000
Route VEBIT T10 TORPA DCT REKLA DCT RLP DCT ROTSI DCT KOTUN DCT AMAXA DCT VESAN DCT RATUK DCT SOVAT L613 SANDY DCT OKSAW DCT TEWXI DCT LIPGO DCT RESNO/M083F340 DCT 56N020W 57N030W 57N040W 56N050W DCT JANJO/N0471F360 DCT DENSO/N0464F380 DCT AGLOL DCT MERNU DCT XEXUL DCT BLUOX DCT RAP/N0474F400 J158 DDY J107 BERYL/N0481F390 DCT STEWW CHOWW4
Aircraft A343/H-SDE2E3FGHIJ4J5M1RWXY/LB1D1

Departure

Time 2026-04-25 23:27
Airport Zürich Airport (LSZH)

Arrival

Time N/A
Airport Harry Reid International Airport (KLAS)
Time Latitude Longitude Altitude Speed Heading
2026-04-25 22:54 47.46055 8.55298 1400 ft 0 kts
2026-04-25 22:59 47.46062 8.55337 1410 ft 0 kts
2026-04-25 23:18 47.46043 8.55334 1410 ft 4 kts
2026-04-25 23:18 47.46016 8.55330 1410 ft 4 kts
2026-04-25 23:18 47.45995 8.55326 1410 ft 4 kts 22°
2026-04-25 23:18 47.45979 8.55305 1410 ft 4 kts 88°
2026-04-25 23:19 47.45981 8.55268 1408 ft 4 kts 96°
2026-04-25 23:19 47.45983 8.55249 1407 ft 0 kts 95°
2026-04-25 23:22 47.45982 8.55259 1408 ft 2 kts 95°
2026-04-25 23:22 47.45980 8.55297 1410 ft 5 kts 95°
2026-04-25 23:22 47.45976 8.55362 1409 ft 7 kts 95°
2026-04-25 23:23 47.45962 8.55555 1412 ft 11 kts 96°
2026-04-25 23:23 47.45954 8.55677 1406 ft 13 kts 96°
2026-04-25 23:23 47.45944 8.55816 1408 ft 14 kts 96°
2026-04-25 23:23 47.45932 8.55972 1417 ft 16 kts 96°
2026-04-25 23:24 47.45922 8.56108 1415 ft 11 kts 96°
2026-04-25 23:24 47.45914 8.56217 1415 ft 10 kts 96°
2026-04-25 23:24 47.45942 8.56301 1418 ft 10 kts 26°
2026-04-25 23:24 47.45995 8.56320 1420 ft 0 kts
2026-04-25 23:25 47.45997 8.56320 1420 ft 2 kts
2026-04-25 23:25 47.46030 8.56328 1420 ft 8 kts
2026-04-25 23:25 47.46100 8.56340 1419 ft 12 kts
2026-04-25 23:26 47.46199 8.56330 1417 ft 17 kts 340°
2026-04-25 23:26 47.46256 8.56274 1418 ft 0 kts 320°
2026-04-25 23:26 47.46256 8.56273 1418 ft 2 kts 320°
2026-04-25 23:26 47.46370 8.56124 1413 ft 49 kts 318°
2026-04-25 23:27 47.46769 8.55583 1408 ft 105 kts 317°
2026-04-25 23:27 47.47429 8.54674 1401 ft 152 kts 317°
2026-04-25 23:27 47.48289 8.53492 1558 ft 176 kts 319°
2026-04-25 23:27 47.49190 8.52272 2171 ft 176 kts 317°
2026-04-25 23:28 47.50084 8.51028 2796 ft 179 kts 320°
2026-04-25 23:28 47.51004 8.49772 3306 ft 181 kts 320°
2026-04-25 23:28 47.51730 8.48249 3664 ft 187 kts 287°
2026-04-25 23:28 47.51820 8.46265 3896 ft 204 kts 266°
2026-04-25 23:29 47.51743 8.44068 4071 ft 225 kts 269°
2026-04-25 23:29 47.51660 8.41655 4315 ft 244 kts 268°
2026-04-25 23:29 47.51476 8.39061 4545 ft 264 kts 254°
2026-04-25 23:29 47.50491 8.36773 5068 ft 270 kts 219°
2026-04-25 23:30 47.48767 8.35682 5607 ft 276 kts 185°
2026-04-25 23:30 47.46852 8.35916 6247 ft 278 kts 171°
2026-04-25 23:30 47.44909 8.36380 6686 ft 290 kts 172°
2026-04-25 23:30 47.42853 8.36868 6870 ft 310 kts 172°
2026-04-25 23:31 47.40654 8.37092 7170 ft 320 kts 189°
2026-04-25 23:31 47.38654 8.35841 7976 ft 310 kts 222°
2026-04-25 23:31 47.37491 8.33284 8811 ft 300 kts 255°
2026-04-25 23:31 47.37018 8.30308 9499 ft 298 kts 258°
2026-04-25 23:32 47.36404 8.27343 9970 ft 305 kts 249°
2026-04-25 23:32 47.35565 8.24489 10224 ft 300 kts 246°
2026-04-25 23:32 47.34662 8.21747 10265 ft 297 kts 245°
2026-04-25 23:32 47.33774 8.19000 10323 ft 298 kts 246°
2026-04-25 23:33 47.32906 8.16223 10169 ft 299 kts 246°
2026-04-25 23:33 47.31990 8.13497 10018 ft 294 kts 239°
2026-04-25 23:33 47.30916 8.10998 10225 ft 289 kts 239°
2026-04-25 23:33 47.29846 8.08419 10386 ft 300 kts 240°
2026-04-25 23:34 47.28784 8.05689 10625 ft 314 kts 242°
2026-04-25 23:34 47.27731 8.02799 10845 ft 326 kts 246°
2026-04-25 23:34 47.27108 7.99545 11036 ft 337 kts 267°
2026-04-25 23:34 47.27110 7.96039 11280 ft 348 kts 275°
2026-04-25 23:35 47.27377 7.92435 11509 ft 360 kts 279°
2026-04-25 23:35 47.27777 7.88744 11805 ft 369 kts 280°
2026-04-25 23:35 47.28218 7.84994 12230 ft 374 kts 281°
2026-04-25 23:35 47.28654 7.81201 12723 ft 378 kts 280°
2026-04-25 23:36 47.29068 7.77365 13232 ft 381 kts 280°
2026-04-25 23:36 47.29461 7.73491 13732 ft 384 kts 279°
2026-04-25 23:36 47.29841 7.69578 14210 ft 387 kts 279°
2026-04-25 23:36 47.30217 7.65634 14688 ft 390 kts 280°
2026-04-25 23:37 47.30811 7.61733 15164 ft 391 kts 286°
2026-04-25 23:37 47.31549 7.57865 15630 ft 393 kts 288°
2026-04-25 23:37 47.32353 7.53999 16096 ft 395 kts 289°
2026-04-25 23:37 47.33193 7.50130 16565 ft 398 kts 289°
2026-04-25 23:38 47.34049 7.46249 17029 ft 400 kts 289°
2026-04-25 23:38 47.34913 7.42333 17481 ft 403 kts 289°
2026-04-25 23:38 47.35781 7.38378 17962 ft 405 kts 289°
2026-04-25 23:38 47.36645 7.34414 18439 ft 407 kts 288°
2026-04-25 23:39 47.37508 7.30425 18828 ft 410 kts 288°
2026-04-25 23:39 47.38373 7.26407 19230 ft 412 kts 288°
2026-04-25 23:39 47.39240 7.22366 19616 ft 415 kts 288°
2026-04-25 23:39 47.40111 7.18294 20012 ft 417 kts 288°
2026-04-25 23:40 47.40866 7.14145 20398 ft 419 kts 284°
2026-04-25 23:40 47.41541 7.09945 20799 ft 421 kts 283°
2026-04-25 23:40 47.42176 7.05770 21170 ft 424 kts 283°
2026-04-25 23:40 47.42803 7.01508 21532 ft 426 kts 282°
2026-04-25 23:41 47.43425 6.97217 21909 ft 429 kts 282°
2026-04-25 23:41 47.44048 6.92896 22271 ft 431 kts 282°
2026-04-25 23:41 47.44674 6.88564 22625 ft 433 kts 282°
2026-04-25 23:41 47.45305 6.84196 22970 ft 435 kts 282°
2026-04-25 23:42 47.45938 6.79818 23299 ft 437 kts 282°
2026-04-25 23:42 47.46574 6.75410 23654 ft 439 kts 282°
2026-04-25 23:42 47.47212 6.70987 23947 ft 442 kts 282°
2026-04-25 23:42 47.47801 6.66523 24212 ft 444 kts 278°
2026-04-25 23:43 47.48214 6.61988 24468 ft 446 kts 277°
2026-04-25 23:43 47.48579 6.57427 24752 ft 447 kts 276°
2026-04-25 23:43 47.48918 6.52846 25031 ft 449 kts 276°
2026-04-25 23:43 47.49244 6.48250 25294 ft 451 kts 276°
2026-04-25 23:44 47.49565 6.43637 25566 ft 452 kts 276°
2026-04-25 23:44 47.49886 6.39006 25835 ft 454 kts 276°
2026-04-25 23:44 47.50209 6.34351 26085 ft 455 kts 276°
2026-04-25 23:44 47.50532 6.29690 26337 ft 457 kts 276°
2026-04-25 23:45 47.50857 6.25012 26594 ft 458 kts 275°
2026-04-25 23:45 47.51181 6.20317 26871 ft 459 kts 275°
2026-04-25 23:45 47.51505 6.15613 27104 ft 461 kts 275°
2026-04-25 23:45 47.51828 6.10891 27331 ft 462 kts 275°
2026-04-25 23:46 47.52151 6.06156 27574 ft 464 kts 275°
2026-04-25 23:46 47.52472 6.01400 27810 ft 465 kts 275°
2026-04-25 23:46 47.52792 5.96634 28034 ft 467 kts 275°
2026-04-25 23:46 47.53284 5.91882 28243 ft 469 kts 282°
2026-04-25 23:47 47.54208 5.87249 28467 ft 470 kts 290°
2026-04-25 23:47 47.55611 5.82864 28678 ft 473 kts 299°
2026-04-25 23:47 47.57495 5.78852 28862 ft 477 kts 308°
2026-04-25 23:47 47.59616 5.75161 29116 ft 477 kts 310°
2026-04-25 23:48 47.61841 5.71522 29461 ft 476 kts 311°
2026-04-25 23:48 47.64092 5.67937 29786 ft 475 kts 311°
2026-04-25 23:48 47.66347 5.64365 30068 ft 474 kts 311°
2026-04-25 23:48 47.68593 5.60795 30360 ft 473 kts 311°
2026-04-25 23:49 47.70825 5.57221 30616 ft 472 kts 311°
2026-04-25 23:49 47.73046 5.53643 30864 ft 470 kts 311°
2026-04-25 23:49 47.75255 5.50063 31078 ft 470 kts 311°
2026-04-25 23:49 47.77458 5.46480 31314 ft 470 kts 310°
2026-04-25 23:50 47.79663 5.42883 31464 ft 470 kts 310°
2026-04-25 23:50 47.81864 5.39290 31700 ft 469 kts 310°
2026-04-25 23:50 47.84058 5.35705 31926 ft 468 kts 310°
2026-04-25 23:50 47.86249 5.32122 32120 ft 468 kts 310°
2026-04-25 23:51 47.88437 5.28538 32185 ft 466 kts 310°
2026-04-25 23:51 47.92756 5.21463 32173 ft 459 kts 310°
2026-04-25 23:52 47.97036 5.14419 32176 ft 458 kts 310°
2026-04-25 23:52 48.01313 5.07355 32181 ft 459 kts 310°
2026-04-25 23:53 48.05593 5.00267 32180 ft 460 kts 310°
2026-04-25 23:53 48.09876 4.93163 32182 ft 460 kts 310°
2026-04-25 23:54 48.14151 4.86055 32186 ft 459 kts 310°
2026-04-25 23:54 48.18402 4.78967 32186 ft 457 kts 310°
2026-04-25 23:55 48.22639 4.71882 32189 ft 457 kts 310°
2026-04-25 23:55 48.26872 4.64784 32191 ft 456 kts 309°
2026-04-25 23:56 48.31077 4.57726 32195 ft 456 kts 309°
2026-04-25 23:56 48.35295 4.50612 32203 ft 456 kts 309°
2026-04-25 23:57 48.39493 4.43510 32200 ft 454 kts 309°
2026-04-25 23:57 48.43681 4.36410 32199 ft 453 kts 309°
2026-04-25 23:58 48.47854 4.29317 32209 ft 452 kts 309°
2026-04-25 23:58 48.52016 4.22227 32209 ft 450 kts 309°
2026-04-25 23:59 48.56160 4.15146 32210 ft 450 kts 309°
2026-04-25 23:59 48.60302 4.08048 32215 ft 450 kts 309°
2026-04-26 00:00 48.64434 4.00950 32211 ft 449 kts 309°
2026-04-26 00:00 48.68556 3.93848 32212 ft 449 kts 309°
2026-04-26 00:01 48.72862 3.86975 32214 ft 452 kts 318°
2026-04-26 00:01 48.77856 3.81177 32212 ft 453 kts 321°
2026-04-26 00:02 48.82968 3.75582 32217 ft 453 kts 322°
2026-04-26 00:02 48.88099 3.70006 32215 ft 453 kts 322°
2026-04-26 00:03 48.93225 3.64400 32217 ft 453 kts 322°
2026-04-26 00:03 48.98333 3.58779 32216 ft 453 kts 322°
2026-04-26 00:04 49.03439 3.53141 32224 ft 453 kts 322°
2026-04-26 00:04 49.08539 3.47498 32223 ft 452 kts 323°
2026-04-26 00:05 49.13621 3.41859 32223 ft 451 kts 323°
2026-04-26 00:05 49.18695 3.36213 32219 ft 451 kts 323°
2026-04-26 00:06 49.23767 3.30556 32221 ft 451 kts 323°
2026-04-26 00:06 49.28838 3.24884 32205 ft 451 kts 323°
2026-04-26 00:07 49.33038 3.20177 32229 ft 450 kts 323°
2026-04-26 00:07 49.38904 3.13584 32231 ft 450 kts 323°
2026-04-26 00:08 49.43943 3.07906 32220 ft 449 kts 323°
2026-04-26 00:08 49.48981 3.02213 32235 ft 449 kts 322°
2026-04-26 00:09 49.53199 2.97436 32230 ft 449 kts 322°
2026-04-26 00:09 49.58198 2.91760 32215 ft 450 kts 322°
2026-04-26 00:10 49.63231 2.86030 32233 ft 450 kts 322°
2026-04-26 00:10 49.68260 2.80290 32234 ft 449 kts 322°
2026-04-26 00:11 49.73283 2.74543 32229 ft 449 kts 322°
2026-04-26 00:11 49.78304 2.68784 32222 ft 449 kts 323°
2026-04-26 00:12 49.83354 2.63144 32223 ft 447 kts 323°
2026-04-26 00:12 49.88425 2.57559 32227 ft 447 kts 323°
2026-04-26 00:13 49.93486 2.51952 32250 ft 447 kts 323°
2026-04-26 00:13 49.98535 2.46321 32238 ft 447 kts 323°
2026-04-26 00:14 50.03583 2.40668 32241 ft 447 kts 323°
2026-04-26 00:14 50.08623 2.35008 32242 ft 447 kts 323°
2026-04-26 00:15 50.13668 2.29330 32244 ft 447 kts 323°
2026-04-26 00:15 50.18695 2.23660 32249 ft 445 kts 323°
2026-04-26 00:16 50.23695 2.18003 32253 ft 444 kts 323°
2026-04-26 00:16 50.28693 2.12332 32249 ft 444 kts 323°
2026-04-26 00:17 50.33687 2.06652 32252 ft 444 kts 323°
2026-04-26 00:17 50.38668 2.00942 32247 ft 444 kts 321°
2026-04-26 00:18 50.43368 1.94673 32256 ft 444 kts 317°
2026-04-26 00:18 50.47947 1.88165 32253 ft 444 kts 317°
2026-04-26 00:19 50.52560 1.81717 32262 ft 443 kts 318°
2026-04-26 00:19 50.57182 1.75354 32265 ft 441 kts 318°
2026-04-26 00:20 50.61808 1.69002 32265 ft 441 kts 318°
2026-04-26 00:20 50.66431 1.62639 32258 ft 442 kts 318°
2026-04-26 00:21 50.71054 1.56255 32259 ft 442 kts 318°
2026-04-26 00:21 50.75638 1.49887 32259 ft 442 kts 318°
2026-04-26 00:22 50.80249 1.43472 32264 ft 442 kts 318°
2026-04-26 00:22 50.84856 1.37051 32259 ft 441 kts 318°
2026-04-26 00:23 50.89448 1.30633 32268 ft 440 kts 318°
2026-04-26 00:23 50.94037 1.24202 32265 ft 440 kts 318°
2026-04-26 00:24 50.98618 1.17765 32265 ft 440 kts 318°
2026-04-26 00:24 51.03182 1.11277 32265 ft 440 kts 315°
2026-04-26 00:25 51.06928 1.03648 32266 ft 439 kts 299°
2026-04-26 00:25 51.09442 0.94784 32265 ft 440 kts 293°
2026-04-26 00:26 51.11667 0.85715 32268 ft 439 kts 292°
2026-04-26 00:26 51.13847 0.76636 32269 ft 439 kts 292°
2026-04-26 00:27 51.16038 0.67566 32265 ft 439 kts 292°
2026-04-26 00:27 51.18236 0.58500 32266 ft 439 kts 292°
2026-04-26 00:28 51.20432 0.49424 32265 ft 439 kts 292°
2026-04-26 00:28 51.22621 0.40338 32266 ft 438 kts 292°
2026-04-26 00:29 51.24799 0.31254 32265 ft 438 kts 292°
2026-04-26 00:29 51.26970 0.22158 32264 ft 438 kts 292°
2026-04-26 00:30 51.29134 0.13057 32263 ft 438 kts 292°
2026-04-26 00:30 51.31291 0.03945 32262 ft 438 kts 291°
2026-04-26 00:31 51.33442 -0.05178 32269 ft 439 kts 291°
2026-04-26 00:31 51.35589 -0.14323 32262 ft 439 kts 291°
2026-04-26 00:32 51.37727 -0.23474 32265 ft 439 kts 291°